Date/Time (UTC),ProbHail,ProbWind,ProbTor,MESH,VIL Density,Flash Rate,Max Flash Density,LJA sigma-level,Max 0-2km AzShear,LLAZ 98th%,MLAZ 98th%,MUCAPE,MLCAPE,CAPE -10C to -30C,MLCIN,SRH 0-1km AGL,EBShear,MeanWind 0-1km AGL,Norm. Sat. Growth Rate,PWAT,WBZ,AvgBeamHgt,size
2020/03/27 19:54,7,5,0,0.44,1.5,9,0.23,0.0,3,2,5,1958,1571,596,43,0,68.4,16.2,0,1.4,12.2,3.1,200
2020/03/27 19:56,3,5,0,0.44,1.5,11,0.23,0.0,4,2,5,1853,1554,523,40,10,67.2,16.2,0,1.6,12.2,3.1,242
2020/03/27 19:58,6,8,0,0.59,1.5,11,0.41,0.0,3,2,6,1815,1505,515,49,12,68.1,16.3,0,1.6,12.2,2.8,203
2020/03/27 20:00,6,8,0,0.59,1.7,11,0.41,0.0,3,2,5,1804,1489,515,51,12,68.5,16.4,0,1.6,12.2,2.7,247
2020/03/27 20:02,6,8,0,0.59,1.7,11,0.41,0.0,4,2,5,1799,1481,515,54,12,69.0,16.3,0,1.6,12.3,2.5,252
2020/03/27 20:04,7,8,0,0.6,2.5,12,0.41,0.0,4,2,5,1793,1444,511,64,14,70.0,16.4,0,1.7,12.3,2.1,250
2020/03/27 20:06,7,8,0,0.6,2.5,12,0.41,0.0,4,2,5,1793,1444,511,64,14,70.0,16.4,0,1.7,12.3,2.1,250
2020/03/27 20:08,14,36,0,0.79,2.5,16,0.41,2.7,6,4,6,1794,1427,506,69,17,70.2,16.4,0,1.7,12.3,1.9,311
2020/03/27 20:10,14,44,0,0.79,2.5,16,0.41,0.0,6,5,5,1822,1412,502,75,23,71.6,16.1,0,1.7,12.4,1.5,296
2020/03/27 20:12,17,40,0,0.79,1.8,21,0.41,1.6,6,5,7,1822,1412,502,75,23,71.6,16.1,0,1.7,12.4,1.5,296
2020/03/27 20:14,34,68,0,0.98,2.6,26,0.91,0.7,6,5,6,1819,1402,501,76,26,71.8,16.1,0,1.7,12.4,1.4,236
2020/03/27 20:16,34,68,0,0.98,2.6,26,0.91,0.0,6,5,7,1826,1400,501,76,29,72.1,15.9,0,1.7,12.4,1.2,298
2020/03/27 20:18,34,33,0,0.98,2.6,26,0.91,0.4,4,3,7,1842,1412,506,73,32,72.5,15.7,0,1.7,12.4,1.1,205
2020/03/27 20:20,46,53,0,1.11,3.0,26,0.91,0.0,7,3,4,1838,1413,513,70,34,72.6,15.7,0,1.7,12.4,1.0,225
2020/03/27 20:22,46,68,0,1.11,4.1,26,0.91,0.0,7,3,4,1838,1413,513,70,34,72.6,15.7,0,1.7,12.4,1.0,225
2020/03/27 20:24,46,63,0,1.11,4.1,26,0.91,0.0,7,3,3,1832,1412,518,70,36,72.6,15.7,0,1.7,12.4,0.9,259
2020/03/27 20:26,48,68,0,1.3,4.1,17,0.91,1.4,6,3,8,1832,1425,535,65,40,72.7,15.8,0,1.7,12.4,0.6,237
2020/03/27 20:28,44,63,1,1.3,4.1,10,0.91,0.0,5,3,9,1832,1424,535,65,40,72.7,15.8,0,1.7,12.4,0.6,244
2020/03/27 20:30,70,40,1,1.73,3.1,10,0.91,0.0,5,3,9,1830,1425,535,67,42,72.7,15.9,0,1.7,12.4,0.6,295
2020/03/27 20:32,70,58,0,1.73,3.4,10,0.91,0.0,5,3,4,1832,1428,536,67,42,72.7,16.0,0,1.7,12.4,0.6,317
2020/03/27 20:34,76,69,0,1.73,3.4,18,0.91,2.2,5,3,5,1837,1438,540,71,47,72.7,16.3,0,1.7,12.4,0.5,245
2020/03/27 20:36,77,65,0,1.73,3.4,20,0.91,0.4,4,3,6,1797,1411,527,84,53,72.6,16.7,0,1.6,12.4,0.5,261
2020/03/27 20:38,22,40,0,0.85,2.8,20,0.91,0.0,6,3,6,1786,1402,524,88,54,72.5,16.9,0,1.6,12.4,0.5,294
2020/03/27 20:40,19,44,0,0.81,2.8,20,0.91,0.6,7,4,7,1776,1395,520,91,56,72.5,17.0,0,1.6,12.4,0.5,321
2020/03/27 20:42,16,49,0,0.8,2.7,20,0.91,0.0,7,4,8,1723,1343,497,114,64,72.2,17.9,0,1.6,12.3,0.7,344
2020/03/27 20:44,13,61,2,0.76,2.7,15,0.91,0.0,11,5,15,1684,1306,485,127,69,71.9,18.2,0,1.6,12.3,0.7,349
2020/03/27 20:46,27,68,2,1.04,2.7,15,0.88,0.0,11,5,15,1676,1290,488,139,73,71.7,18.3,0,1.6,12.3,0.9,293
2020/03/27 20:48,32,78,5,1.04,2.9,19,0.88,2.7,13,7,10,1638,1255,480,150,77,71.4,18.4,0,1.6,12.3,1.0,350
2020/03/27 20:50,32,78,7,1.04,2.9,19,0.54,0.0,9,7,11,1618,1233,480,161,80,71.4,18.5,0,1.6,12.2,1.1,332
2020/03/27 20:52,75,82,5,1.73,2.9,19,0.44,0.0,9,7,11,1588,1208,476,170,83,71.4,18.7,0,1.6,12.1,1.3,316
2020/03/27 20:54,81,85,4,1.73,3.2,25,0.44,2.1,10,8,11,1723,860,398,139,95,70.9,21.3,0,1.7,12.3,1.6,293
2020/03/27 20:56,85,83,4,2.02,3.2,25,0.44,0.0,10,8,9,1655,846,393,143,99,71.1,21.7,0,1.7,12.3,1.8,284
2020/03/27 20:58,85,87,11,2.02,3.2,25,0.46,0.1,10,8,9,1655,846,393,143,99,71.1,21.7,0,1.7,12.3,1.8,284
2020/03/27 21:00,90,92,21,2.02,3.2,41,0.75,3.2,19,11,9,1546,825,377,147,105,71.1,22.1,0,1.7,12.2,2.1,282
2020/03/27 21:02,90,87,19,2.07,3.1,41,0.75,0.0,19,11,7,1513,815,367,149,107,70.8,22.3,0,1.7,12.1,2.2,361
2020/03/27 21:04,90,89,21,2.48,3.6,41,0.75,0.0,19,11,7,1452,795,349,148,110,70.4,22.3,0,1.7,12.1,2.4,251
2020/03/27 21:06,90,92,17,2.48,3.6,41,0.75,0.6,50,27,7,1415,781,340,148,112,69.9,22.5,0,1.7,12.1,2.6,377
2020/03/27 21:08,90,89,17,2.48,3.6,37,0.75,0.4,50,32,7,1356,765,328,150,115,69.2,22.8,0,1.7,12.0,2.7,259
2020/03/27 21:10,89,89,17,2.35,3.6,35,0.75,0.0,50,32,7,1343,760,327,148,115,68.9,22.7,0,1.7,12.1,2.9,271
2020/03/27 21:12,89,89,20,2.35,3.6,35,0.75,2.0,50,32,5,1270,741,327,150,117,67.7,23.2,0,1.7,12.0,3.3,240
2020/03/27 21:14,89,82,1,2.35,3.6,35,0.75,0.0,7,4,5,1241,735,327,151,118,67.0,23.6,0,1.7,11.9,3.5,236
2020/03/27 21:16,82,81,1,1.46,3.3,46,1.1,1.2,7,4,6,1241,735,327,151,118,67.0,23.6,0,1.7,11.9,3.5,236
2020/03/27 21:18,82,83,10,1.46,2.9,46,1.1,0.0,16,7,6,1264,732,341,149,114,67.1,23.4,0,1.7,11.9,3.8,337
2020/03/27 21:20,75,87,11,1.31,2.9,46,1.1,0.0,16,8,6,1266,728,348,148,113,66.8,23.6,0,1.6,11.8,4.1,250
2020/03/27 21:22,63,85,10,1.14,2.9,46,1.1,0.3,16,8,6,1296,727,359,148,110,67.0,23.9,0,1.6,11.8,4.6,257
2020/03/27 21:24,62,82,10,1.14,2.4,45,1.1,1.1,16,8,6,1307,725,363,147,110,67.2,23.8,0,1.6,11.8,4.6,200
2020/03/27 21:26,61,71,2,1.11,2.6,45,1.1,0.0,7,3,5,1350,737,371,147,108,67.7,24.2,0,1.6,11.9,5.1,230
2020/03/27 21:28,61,76,1,1.11,2.6,45,1.1,0.0,7,4,5,1350,737,371,147,108,67.7,24.2,0,1.6,11.9,5.1,230
2020/03/27 21:30,61,79,1,1.11,2.8,45,1.1,0.0,8,4,5,1406,750,387,147,105,68.4,24.7,0,1.6,12.0,5.5,243
2020/03/27 21:32,56,81,1,1.11,3.3,33,1.1,1.3,9,5,5,1407,750,387,146,105,68.4,24.7,0,1.6,12.0,5.5,242
2020/03/27 21:34,77,87,1,1.39,3.8,43,1.1,0.9,9,5,5,1454,759,396,150,104,68.6,25.3,0,1.6,12.0,5.7,277
2020/03/27 21:36,77,85,1,1.39,3.8,43,1.1,0.0,8,5,6,1454,759,396,150,104,68.6,25.3,0,1.6,12.0,5.7,277
2020/03/27 21:38,79,87,1,1.41,3.8,43,1.1,0.0,8,5,6,1538,766,407,150,100,68.9,25.4,0,1.6,12.0,5.7,248
2020/03/27 21:40,79,87,1,1.41,3.8,43,1.1,0.0,8,5,5,1538,766,407,150,100,68.9,25.4,0,1.6,12.0,5.7,248
2020/03/27 21:42,68,82,1,1.41,3.6,27,1.1,0.0,8,5,5,1566,767,402,153,99,68.9,25.8,0,1.6,12.0,5.4,263
2020/03/27 21:44,51,82,1,1.19,3.3,25,1.1,1.5,8,5,5,1635,768,399,156,96,69.0,25.9,0,1.6,11.9,5.1,216
2020/03/27 21:46,47,76,1,1.1,2.7,25,1.1,0.0,8,5,5,1657,768,395,158,96,69.1,26.1,0,1.6,11.9,4.9,228
2020/03/27 21:48,27,75,1,0.87,2.7,25,0.95,0.5,8,5,5,1705,772,385,160,94,69.2,26.1,0,1.6,11.9,4.6,208
2020/03/27 21:50,20,74,1,0.77,2.9,25,0.95,0.0,8,5,5,1743,779,377,163,93,69.3,26.1,0,1.6,11.8,4.3,205
2020/03/27 21:52,14,50,1,0.77,2.9,14,0.95,0.0,8,5,5,1743,779,377,163,93,69.3,26.1,0,1.6,11.8,4.3,205
2020/03/27 21:54,10,48,1,0.68,2.9,14,0.95,0.0,7,4,4,1828,815,377,173,91,69.5,26.0,0,1.6,11.8,3.8,313
2020/03/27 21:56,9,39,1,0.68,2.9,8,0.95,0.0,7,4,5,1861,836,381,179,92,69.7,26.1,0,1.6,11.8,3.6,283
2020/03/27 21:58,2,33,1,0.34,2.7,8,0.95,0.0,7,4,5,1668,685,402,163,146,64.7,35.5,0,1.7,11.9,3.4,258
2020/03/27 22:00,2,30,1,0.34,2.1,4,0.95,0.0,7,4,6,1671,685,402,162,146,64.7,35.5,0,1.7,11.9,3.4,260
2020/03/27 22:02,2,23,1,0.34,1.7,3,0.95,0.0,6,4,6,1713,709,400,152,142,65.1,35.3,0,1.7,11.8,3.1,214
2020/03/27 22:04,1,12,1,0.08,1.7,1,0.95,0.0,6,4,4,1713,709,400,152,142,65.1,35.3,0,1.7,11.8,3.1,214
2020/03/27 22:06,1,2,0,0.07,1.0,1,0.53,0.0,5,4,4,1692,696,395,156,143,64.9,35.5,0,1.7,11.8,3.2,77
2020/03/27 22:08,1,3,0,0.07,1.0,1,0.35,0.0,5,4,5,1816,769,414,127,133,65.9,34.5,0,1.7,11.8,2.7,148
2020/03/27 22:10,1,1,0,0.0,0.7,1,0.32,0.0,5,4,5,1808,765,413,129,133,65.9,34.5,0,1.7,11.8,2.7,136
2020/03/27 22:12,1,1,0,0.0,0.6,1,0.3,0.0,3,2,4,1915,843,437,102,124,66.8,33.6,0,1.7,11.8,2.3,40
2020/03/27 22:14,1,1,0,0.0,0.6,1,0.3,0.0,2,2,1,1911,839,436,103,125,66.8,33.7,0,1.7,11.8,2.3,40
